Meteo Giornale » Osservazioni meteo Gran Bretagna » Lossiemouth
ore: 17:50 - Osservazioni Meteo Lossiemouth
Lat. 57° 43' N Lon. 3° 19' W Alt. 13 metri s.l.m.
17 °C
Poco Nuvoloso
Temp. 24 Ore
11 °C
20 °C
Ovest
27.8 Km/h
Dew point 7 °C
Umidità 51 %
Visibilità 10 Km
Il sole sorge alle ore 06:14
Il sole tramonta alle ore 20:12
| Data e Ora | Cielo e Fenomeni | T °C | DP °C | Um. % | Pres. hPa | Vis. km | Vento km/h | |
|---|---|---|---|---|---|---|---|---|
| Oggi h: 17:50 | Poco Nuvoloso | 17 | 7 | 51 | 1009 | 10 | O 27.8 | |
| Oggi h: 17:20 | Poco Nuvoloso | 17 | 7 | 51 | 1009 | 10 | O 29.6 | |
| Oggi h: 16:50 | Poco Nuvoloso | 18 | 8 | 51 | 1009 | 10 | O 27.8 | |
| Oggi h: 16:20 | Poco Nuvoloso | 18 | 9 | 55 | 1008 | 10 | O 27.8 | |
| Oggi h: 15:50 | Sereno | 18 | 9 | 55 | 1008 | 10 | O 31.5 | |
| Oggi h: 15:20 | Poco Nuvoloso | 18 | 9 | 55 | 1008 | 10 | O 37 | |
| Oggi h: 14:50 | Poco Nuvoloso | 18 | 10 | 59 | 1008 | 10 | O 27.8 | |
| Oggi h: 14:20 | Nuvoloso | 17 | 12 | 72 | 1008 | 10 | O/NO 25.9 | |
| Oggi h: 13:50 | Molto Nuvoloso | 16 | 10 | 67 | 1007 | 10 | O/NO 37 | |
| Oggi h: 13:20 | Nuvoloso | 16 | 11 | 72 | 1007 | 10 | O/NO 33.3 | |
| Oggi h: 12:50 | Molto Nuvoloso | 15 | 12 | 82 | 1006 | 10 | O/NO 33.3 | |
| Oggi h: 12:34 | Pioggia | 15 | 11 | 76 | 1006 | 10 | O 27.8 | |
| Oggi h: 12:20 | Pioggia | 15 | 14 | 93 | 1005 | 4 | O 38.8 | |
| Oggi h: 12:07 | Pioggia | 16 | 13 | 82 | 1005 | 3 | O 31.5 | |
| Oggi h: 12:00 | Pioggia | 18 | 13 | 72 | 1005 | 3 | O/SO 35.2 | |
| Oggi h: 11:50 | Pioggia | 20 | 13 | 64 | 1005 | 10 | SO 37 | |
| Oggi h: 11:20 | Nuvoloso | 19 | 12 | 63 | 1005 | 10 | SO 37 | |
| Oggi h: 10:50 | Nuvoloso | 17 | 11 | 67 | 1005 | 10 | SO 35.2 | |
| Oggi h: 10:20 | Pioggia | 16 | 12 | 77 | 1005 | 10 | SO 27.8 | |
| Oggi h: 09:50 | Molto Nuvoloso | 16 | 11 | 72 | 1006 | 10 | S/SO 20.3 | |
| Oggi h: 09:20 | Molto Nuvoloso | 16 | 11 | 72 | 1006 | 10 | S/SO 24 | |
| Oggi h: 08:50 | Molto Nuvoloso | 15 | 10 | 72 | 1006 | 10 | S/SO 22.2 | |
| Oggi h: 08:20 | Pioggia | 14 | 10 | 76 | 1007 | 10 | S 14.8 | |
| Oggi h: 07:50 | Molto Nuvoloso | 14 | 10 | 76 | 1007 | 10 | S 14.8 | |
| Oggi h: 06:50 | Molto Nuvoloso | 13 | 10 | 81 | 1008 | 10 | S 13 | |
| Oggi h: 05:50 | Nuvoloso | 11 | 9 | 87 | 1008 | 10 | S 13 | |
| Oggi h: 04:50 | Nuvoloso | 12 | 8 | 76 | 1009 | 10 | S/SO 7.4 | |
| Oggi h: 03:50 | Sereno | 13 | 9 | 76 | 1010 | 10 | SO 11.1 | |
| Oggi h: 02:50 | Sereno | 12 | 9 | 81 | 1010 | 10 | SO 9.3 | |
| Oggi h: 01:50 | Sereno | 11 | 9 | 87 | 1010 | 10 | S/SO 13 | |
| Oggi h: 00:50 | Pioggia | 11 | 9 | 87 | 1011 | 10 | SO 7.4 | |
| Ieri h: 23:50 | Pioggia | 12 | 9 | 81 | 1011 | 10 | O/SO 16.7 | |
| Ieri h: 22:50 | Sereno | 12 | 9 | 81 | 1012 | 10 | O/SO 13 | |
| Ieri h: 21:50 | Molto Nuvoloso | 12 | 8 | 76 | 1011 | 10 | SO 13 | |
| Ieri h: 20:50 | Molto Nuvoloso | 12 | 8 | 76 | 1011 | 10 | O/SO 9.3 | |
| Ieri h: 19:50 | Nuvoloso | 14 | 8 | 67 | 1011 | 10 | O/NO 20.3 | |
| Ieri h: 18:50 | Molto Nuvoloso | 15 | 9 | 67 | 1010 | 10 | O/NO 22.2 | |



